GPS BIII-4

Last updated on Sat Jun 27 2026 00:02:56 GMT+0000 (Coordinated Universal Time)

1 46826U 20078A 26177.24606883 .00000083 00000+0 00000+0 0 9992 2 46826 53.9789 210.4109 0073823 207.4122 155.8219 2.00565126 41695
UTC large
Height (km)
Speed (km/s)
/
Latitude / Longitude
Inclination (degrees)
Orbital Period (minutes)
Azimuth
Elevation
Range (km)
Doppler Factor

Next 0 passes for location: London (51.5072 / 0.1276)

No passes found over London.
GPS BIII-4